GFSNGP_prec_precacc24_096.txt.gz
Total_Precipitation_Accumulation
0.03 0.02 0.07 0.12 0.10 0.09 0.11 0.14 0.26 0.15 0.20 0.33 0.49 0.47 0.48 0.22 0.10 0.11 0.12 0.11 0.16 0.16 0.15 0.15 0.18 0.20 0.31 0.39 0.70 0.61 0.66 1.17 1.25 0.84 0.59 0.45 0.12 0.04 0.03 0.03 0.02 0.02 0.02 0.04
0.07 0.03 0.02 0.02 0.03 0.09 0.09 0.10 0.11 0.06 0.24 0.44 0.40 0.38 0.28 0.24 0.20 0.18 0.17 0.15 0.16 0.16 0.15 0.16 0.16 0.16 0.21 0.27 0.30 0.42 0.42 0.78 1.16 1.62 0.80 0.64 0.46 0.08 0.05 0.06 0.05 0.05 0.07 0.06
0.16 0.06 0.06 0.03 0.05 0.05 0.04 0.09 0.12 0.20 0.29 0.22 0.25 0.19 0.16 0.14 0.10 0.18 0.32 0.17 0.16 0.17 0.16 0.17 0.17 0.15 0.18 0.22 0.25 0.37 0.44 0.71 0.81 0.89 1.29 0.83 0.58 0.14 0.09 0.07 0.07 0.08 0.11 0.13
0.25 0.12 0.16 0.06 0.16 0.25 0.24 0.35 0.41 0.43 0.26 0.14 0.15 0.38 0.39 0.23 0.14 0.20 0.37 0.55 0.27 0.21 0.19 0.17 0.19 0.20 0.21 0.23 0.27 0.33 0.42 0.53 0.64 0.51 0.86 0.98 0.51 0.21 0.16 0.10 0.08 0.08 0.08 0.08
0.36 0.33 0.15 0.12 0.27 0.52 0.55 0.53 0.37 0.29 0.17 0.13 0.10 0.13 0.40 0.47 0.27 0.31 0.43 0.60 0.91 0.47 0.28 0.30 0.24 0.23 0.25 0.27 0.30 0.32 0.47 0.62 0.74 0.78 0.80 0.74 0.64 0.36 0.23 0.19 0.15 0.13 0.11 0.08
0.29 0.51 0.43 0.67 0.26 0.20 0.55 0.51 0.27 0.25 0.15 0.11 0.10 0.13 0.13 0.26 0.35 0.50 0.53 0.46 0.48 0.75 0.67 0.52 0.56 0.39 0.29 0.30 0.30 0.39 0.44 0.49 0.58 0.77 0.90 0.90 0.80 0.63 0.39 0.29 0.23 0.20 0.21 0.19
0.18 0.36 0.50 0.45 0.25 0.32 0.52 0.47 0.17 0.20 0.15 0.10 0.11 0.17 0.42 0.55 0.59 0.74 0.43 0.34 0.36 0.31 0.44 0.66 0.72 0.81 0.67 0.51 0.46 0.50 0.54 0.57 0.60 0.68 0.81 0.83 0.73 0.69 0.60 0.49 0.37 0.29 0.26 0.25
0.33 0.60 0.56 0.09 0.21 0.42 0.50 0.28 0.13 0.14 0.08 0.04 0.09 0.18 0.43 0.59 0.76 0.78 0.53 0.25 0.21 0.24 0.23 0.23 0.23 0.32 0.64 0.81 0.80 0.70 0.61 0.55 0.62 0.62 0.71 0.87 0.94 0.87 0.70 0.62 0.54 0.45 0.38 0.35
0.64 0.62 0.39 0.18 0.26 0.32 0.28 0.17 0.13 0.07 0.09 0.12 0.20 0.41 0.48 0.56 0.70 0.86 0.57 0.14 0.06 0.09 0.06 0.04 0.06 0.08 0.14 0.26 0.44 0.53 0.58 0.64 0.59 0.57 0.57 0.54 0.56 0.69 0.79 0.81 0.70 0.58 0.46 0.41
0.46 0.41 0.22 0.24 0.17 0.15 0.14 0.11 0.09 0.05 0.03 0.22 0.50 0.57 0.66 0.80 0.73 0.67 0.50 0.17 0.06 0.02 0.01 0.03 0.05 0.06 0.04 0.02 0.03 0.07 0.11 0.15 0.20 0.25 0.28 0.29 0.30 0.34 0.37 0.46 0.53 0.60 0.59 0.53
0.42 0.41 0.32 0.22 0.26 0.19 0.17 0.13 0.16 0.19 0.14 0.19 0.35 0.43 0.29 0.30 0.39 0.44 0.48 0.31 0.12 0.08 0.07 0.08 0.04 0.04 0.05 0.05 0.01 0.01 0.03 0.05 0.07 0.10 0.12 0.15 0.16 0.17 0.18 0.23 0.21 0.24 0.30 0.33
0.27 0.20 0.24 0.31 0.29 0.20 0.16 0.18 0.26 0.14 0.12 0.13 0.18 0.25 0.28 0.26 0.21 0.19 0.23 0.23 0.17 0.15 0.13 0.08 0.04 0.04 0.04 0.03 0.02 0.01 0.01 0.01 0.01 0.01 0.02 0.03 0.04 0.06 0.07 0.08 0.06 0.06 0.08 0.08
0.20 0.23 0.17 0.20 0.19 0.14 0.11 0.09 0.08 0.06 0.06 0.07 0.06 0.05 0.10 0.17 0.16 0.14 0.13 0.15 0.18 0.18 0.16 0.13 0.07 0.04 0.04 0.02 0.00 0.00 0.01 0.01 0.01 0.01 0.01 0.02 0.01 0.00 0.02 0.03 0.02 0.03 0.02 0.02
0.27 0.26 0.23 0.21 0.14 0.09 0.03 0.01 0.00 0.00 0.01 0.02 0.02 0.01 0.01 0.02 0.04 0.04 0.06 0.08 0.09 0.10 0.11 0.12 0.11 0.10 0.08 0.03 0.01 0.00 0.00 0.00 0.00 0.01 0.01 0.01 0.01 0.01 0.02 0.02 0.02 0.01 0.02 0.01
0.27 0.17 0.10 0.06 0.02 0.01 0.00 0.00 0.00 0.00 0.00 0.01 0.00 0.00 0.00 0.01 0.03 0.04 0.04 0.02 0.01 0.01 0.01 0.01 0.01 0.03 0.02 0.02 0.01 0.00 0.01 0.01 0.01 0.00 0.00 0.00 0.00 0.00 0.00 0.00 0.00 0.01 0.01 0.00
0.18 0.06 0.02 0.02 0.01 0.00 0.00 0.00 0.00 0.00 0.00 0.00 0.00 0.01 0.01 0.01 0.02 0.02 0.02 0.01 0.01 0.01 0.01 0.00 0.01 0.01 0.00 0.01 0.01 0.00 0.00 0.00 0.00 0.00 0.00 0.00 0.00 0.00 0.00 0.00 0.00 0.00 0.00 0.00
0.13 0.07 0.03 0.02 0.01 0.00 0.00 0.00 0.00 0.00 0.00 0.01 0.02 0.02 0.01 0.01 0.01 0.02 0.01 0.01 0.00 0.01 0.00 0.00 0.01 0.00 0.00 0.00 0.00 0.00 0.00 0.00 0.00 0.00 0.00 0.00 0.00 0.00 0.00 0.00 0.00 0.00 0.00 0.00
0.07 0.05 0.04 0.01 0.00 0.00 0.00 0.01 0.00 0.00 0.01 0.01 0.01 0.01 0.01 0.01 0.02 0.01 0.01 0.00 0.00 0.00 0.00 0.00 0.00 0.00 0.00 0.00 0.00 0.00 0.00 0.00 0.00 0.00 0.00 0.00 0.00 0.00 0.00 0.00 0.00 0.00 0.00 0.00
0.04 0.03 0.01 0.00 0.00 0.00 0.01 0.01 0.01 0.02 0.01 0.01 0.01 0.01 0.01 0.01 0.00 0.00 0.00 0.00 0.00 0.00 0.00 0.00 0.00 0.00 0.00 0.00 0.00 0.00 0.00 0.00 0.00 0.00 0.00 0.00 0.00 0.00 0.00 0.00 0.00 0.00 0.00 0.00
0.01 0.00 0.00 0.01 0.00 0.00 0.01 0.02 0.01 0.01 0.01 0.01 0.00 0.00 0.00 0.00 0.00 0.00 0.00 0.00 0.00 0.00 0.00 0.00 0.00 0.00 0.00 0.00 0.00 0.00 0.00 0.00 0.00 0.00 0.00 0.00 0.01 0.01 0.00 0.00 0.00 0.01 0.01 0.00
0.01 0.01 0.01 0.01 0.01 0.01 0.01 0.01 0.01 0.01 0.00 0.00 0.00 0.00 0.00 0.00 0.00 0.00 0.01 0.01 0.00 0.00 0.00 0.00 0.00 0.00 0.00 0.00 0.00 0.00 0.00 0.00 0.00 0.00 0.01 0.01 0.01 0.01 0.01 0.01 0.01 0.01 0.01 0.01
0.01 0.01 0.01 0.01 0.01 0.02 0.02 0.01 0.00 0.00 0.00 0.00 0.00 0.00 0.00 0.00 0.00 0.00 0.00 0.00 0.00 0.00 0.00 0.00 0.00 0.00 0.00 0.00 0.00 0.00 0.00 0.00 0.00 0.01 0.01 0.02 0.02 0.02 0.02 0.01 0.01 0.01 0.01 0.01
0.01 0.01 0.01 0.01 0.01 0.01 0.00 0.00 0.00 0.00 0.00 0.00 0.00 0.00 0.00 0.00 0.00 0.00 0.01 0.00 0.00 0.00 0.00 0.00 0.00 0.00 0.00 0.00 0.00 0.00 0.00 0.00 0.00 0.00 0.01 0.01 0.01 0.01 0.01 0.01 0.01 0.01 0.01 0.01
0.01 0.01 0.00 0.00 0.00 0.00 0.00 0.00 0.00 0.00 0.00 0.00 0.00 0.00 0.00 0.00 0.01 0.00 0.00 0.00 0.00 0.00 0.00 0.00 0.00 0.00 0.00 0.01 0.01 0.00 0.00 0.01 0.01 0.01 0.01 0.00 0.01 0.01 0.01 0.01 0.00 0.00 0.01 0.00
0.00 0.00 0.00 0.00 0.01 0.00 0.00 0.00 0.00 0.00 0.00 0.00 0.00 0.00 0.00 0.00 0.00 0.01 0.00 0.01 0.00 0.00 0.02 0.00 0.00 0.00 0.01 0.01 0.01 0.01 0.01 0.01 0.01 0.00 0.01 0.01 0.01 0.01 0.01 0.01 0.01 0.01 0.01 0.01
0.00 0.00 0.01 0.01 0.01 0.00 0.00 0.00 0.00 0.01 0.01 0.02 0.02 0.01 0.01 0.01 0.00 0.00 0.01 0.01 0.00 0.00 0.01 0.02 0.01 0.01 0.01 0.01 0.02 0.01 0.01 0.01 0.01 0.01 0.01 0.01 0.01 0.01 0.01 0.01 0.01 0.01 0.01 0.01
0.01 0.00 0.00 0.00 0.00 0.00 0.00 0.01 0.01 0.02 0.03 0.02 0.03 0.05 0.03 0.02 0.02 0.01 0.01 0.02 0.02 0.02 0.02 0.02 0.02 0.02 0.02 0.02 0.01 0.01 0.01 0.01 0.01 0.01 0.01 0.01 0.01 0.01 0.01 0.01 0.01 0.01 0.01 0.01

GFSNGP_prec_precacc24_099.txt.gz
Total_Precipitation_Accumulation
0.03 0.02 0.07 0.12 0.10 0.09 0.11 0.12 0.21 0.11 0.19 0.31 0.34 0.33 0.32 0.19 0.10 0.10 0.11 0.08 0.12 0.11 0.12 0.12 0.12 0.14 0.25 0.38 0.78 0.76 0.79 1.25 1.29 0.88 0.67 0.66 0.53 0.30 0.08 0.04 0.02 0.02 0.02 0.04
0.07 0.03 0.02 0.02 0.03 0.09 0.09 0.10 0.11 0.06 0.24 0.44 0.39 0.35 0.18 0.19 0.19 0.20 0.18 0.15 0.15 0.14 0.13 0.14 0.12 0.13 0.20 0.27 0.30 0.48 0.57 0.87 1.19 1.67 0.97 0.93 1.01 0.96 0.41 0.09 0.06 0.05 0.05 0.05
0.16 0.06 0.06 0.03 0.05 0.05 0.04 0.10 0.13 0.21 0.28 0.21 0.24 0.18 0.13 0.11 0.11 0.20 0.32 0.17 0.16 0.17 0.16 0.18 0.17 0.16 0.21 0.27 0.26 0.34 0.45 0.76 0.86 1.00 1.41 1.00 1.07 1.06 1.02 0.27 0.08 0.08 0.08 0.09
0.25 0.12 0.16 0.06 0.16 0.25 0.24 0.35 0.42 0.44 0.26 0.10 0.07 0.25 0.34 0.25 0.20 0.23 0.30 0.48 0.23 0.20 0.19 0.18 0.20 0.21 0.22 0.26 0.30 0.34 0.43 0.58 0.70 0.57 0.99 1.27 0.94 0.88 0.80 0.36 0.12 0.10 0.08 0.07
0.36 0.33 0.15 0.12 0.27 0.52 0.56 0.54 0.39 0.31 0.20 0.15 0.13 0.12 0.34 0.39 0.28 0.28 0.34 0.45 0.78 0.42 0.26 0.30 0.24 0.24 0.25 0.27 0.32 0.35 0.51 0.65 0.77 0.84 0.89 0.99 1.20 0.95 0.79 0.50 0.21 0.15 0.12 0.08
0.29 0.51 0.43 0.67 0.26 0.20 0.57 0.54 0.29 0.28 0.23 0.19 0.22 0.23 0.16 0.17 0.24 0.35 0.43 0.43 0.47 0.73 0.66 0.51 0.56 0.39 0.29 0.30 0.30 0.40 0.47 0.53 0.63 0.81 0.97 1.12 1.22 1.20 0.99 0.75 0.40 0.27 0.24 0.20
0.18 0.37 0.50 0.45 0.25 0.33 0.55 0.49 0.22 0.32 0.31 0.27 0.28 0.24 0.28 0.36 0.34 0.45 0.32 0.33 0.37 0.31 0.45 0.67 0.72 0.81 0.67 0.51 0.47 0.52 0.56 0.59 0.61 0.69 0.83 0.93 0.96 0.99 1.06 0.97 0.73 0.46 0.38 0.33
0.33 0.60 0.56 0.09 0.22 0.43 0.54 0.34 0.24 0.31 0.27 0.25 0.20 0.18 0.23 0.41 0.56 0.62 0.44 0.25 0.21 0.25 0.23 0.24 0.23 0.32 0.64 0.83 0.82 0.70 0.62 0.55 0.62 0.62 0.72 0.87 0.95 0.94 0.83 0.80 0.84 0.76 0.55 0.51
0.65 0.62 0.40 0.20 0.29 0.36 0.32 0.25 0.25 0.22 0.18 0.12 0.14 0.28 0.33 0.37 0.50 0.61 0.50 0.14 0.07 0.09 0.06 0.05 0.07 0.08 0.14 0.27 0.45 0.53 0.58 0.64 0.59 0.57 0.57 0.54 0.56 0.69 0.79 0.81 0.71 0.62 0.55 0.49
0.27 0.30 0.23 0.28 0.21 0.17 0.18 0.17 0.17 0.12 0.08 0.09 0.16 0.24 0.33 0.43 0.44 0.48 0.46 0.17 0.06 0.02 0.01 0.03 0.06 0.06 0.05 0.02 0.03 0.07 0.11 0.15 0.20 0.25 0.28 0.29 0.30 0.34 0.36 0.45 0.53 0.60 0.60 0.55
0.25 0.31 0.30 0.23 0.27 0.19 0.18 0.14 0.13 0.15 0.12 0.14 0.20 0.24 0.20 0.23 0.32 0.40 0.46 0.32 0.13 0.08 0.07 0.09 0.05 0.04 0.06 0.05 0.01 0.01 0.03 0.05 0.07 0.10 0.13 0.15 0.16 0.18 0.18 0.23 0.21 0.23 0.31 0.33
0.22 0.15 0.20 0.27 0.25 0.16 0.14 0.15 0.17 0.09 0.09 0.10 0.12 0.18 0.22 0.21 0.18 0.19 0.24 0.23 0.17 0.15 0.13 0.08 0.04 0.04 0.04 0.03 0.02 0.01 0.01 0.01 0.01 0.01 0.02 0.03 0.04 0.06 0.07 0.09 0.06 0.06 0.07 0.08
0.13 0.15 0.12 0.15 0.15 0.10 0.07 0.06 0.05 0.03 0.03 0.04 0.04 0.04 0.08 0.15 0.15 0.13 0.13 0.15 0.18 0.18 0.16 0.13 0.07 0.04 0.04 0.02 0.00 0.00 0.01 0.01 0.01 0.01 0.01 0.02 0.01 0.00 0.02 0.03 0.03 0.04 0.03 0.02
0.17 0.16 0.16 0.15 0.11 0.07 0.02 0.01 0.00 0.00 0.01 0.00 0.00 0.00 0.01 0.02 0.03 0.03 0.06 0.07 0.08 0.09 0.10 0.11 0.11 0.10 0.08 0.03 0.01 0.00 0.00 0.00 0.00 0.01 0.01 0.01 0.01 0.01 0.02 0.02 0.02 0.02 0.02 0.01
0.22 0.15 0.09 0.05 0.02 0.01 0.00 0.00 0.00 0.00 0.00 0.00 0.00 0.00 0.00 0.01 0.02 0.03 0.03 0.01 0.00 0.00 0.00 0.01 0.01 0.02 0.02 0.02 0.01 0.00 0.01 0.01 0.01 0.00 0.00 0.00 0.00 0.00 0.00 0.00 0.00 0.01 0.01 0.00
0.18 0.06 0.02 0.01 0.01 0.00 0.00 0.00 0.00 0.00 0.00 0.00 0.00 0.00 0.00 0.00 0.01 0.01 0.01 0.00 0.00 0.01 0.00 0.00 0.00 0.01 0.00 0.01 0.01 0.00 0.00 0.00 0.00 0.00 0.00 0.00 0.00 0.00 0.00 0.00 0.00 0.00 0.00 0.00
0.12 0.07 0.03 0.02 0.00 0.00 0.00 0.00 0.00 0.00 0.00 0.00 0.02 0.01 0.00 0.00 0.00 0.01 0.00 0.00 0.00 0.00 0.00 0.00 0.00 0.00 0.00 0.00 0.00 0.00 0.00 0.00 0.00 0.00 0.00 0.00 0.00 0.00 0.00 0.00 0.00 0.00 0.00 0.00
0.07 0.05 0.03 0.01 0.00 0.00 0.00 0.00 0.00 0.00 0.01 0.01 0.00 0.00 0.01 0.01 0.01 0.01 0.00 0.00 0.00 0.00 0.00 0.00 0.00 0.00 0.00 0.00 0.00 0.00 0.00 0.00 0.00 0.00 0.00 0.00 0.00 0.00 0.00 0.00 0.00 0.00 0.00 0.00
0.04 0.03 0.01 0.00 0.00 0.00 0.00 0.01 0.01 0.01 0.01 0.01 0.00 0.00 0.00 0.00 0.00 0.00 0.00 0.00 0.00 0.00 0.00 0.00 0.00 0.00 0.00 0.00 0.00 0.00 0.00 0.00 0.00 0.00 0.00 0.00 0.00 0.00 0.00 0.00 0.00 0.00 0.00 0.00
0.03 0.01 0.01 0.01 0.00 0.00 0.01 0.01 0.01 0.01 0.01 0.00 0.00 0.00 0.00 0.00 0.00 0.00 0.00 0.00 0.00 0.00 0.00 0.00 0.00 0.00 0.00 0.00 0.00 0.00 0.00 0.00 0.00 0.00 0.00 0.00 0.01 0.01 0.00 0.00 0.00 0.01 0.01 0.00
0.01 0.01 0.01 0.01 0.01 0.01 0.01 0.01 0.00 0.00 0.00 0.00 0.00 0.00 0.00 0.00 0.00 0.00 0.01 0.01 0.00 0.00 0.00 0.00 0.00 0.00 0.00 0.00 0.00 0.00 0.00 0.00 0.00 0.01 0.01 0.01 0.02 0.01 0.02 0.02 0.02 0.01 0.01 0.01
0.01 0.01 0.01 0.01 0.01 0.01 0.01 0.01 0.00 0.00 0.00 0.00 0.00 0.00 0.00 0.00 0.00 0.00 0.00 0.00 0.00 0.00 0.00 0.00 0.00 0.00 0.00 0.00 0.00 0.00 0.00 0.00 0.00 0.01 0.01 0.02 0.02 0.03 0.03 0.02 0.02 0.02 0.02 0.01
0.01 0.01 0.01 0.01 0.01 0.00 0.00 0.00 0.00 0.00 0.00 0.00 0.00 0.00 0.00 0.00 0.00 0.00 0.01 0.00 0.00 0.00 0.00 0.00 0.00 0.00 0.00 0.00 0.00 0.00 0.00 0.00 0.00 0.00 0.01 0.01 0.01 0.01 0.02 0.02 0.01 0.01 0.02 0.02
0.01 0.01 0.00 0.00 0.00 0.00 0.00 0.00 0.00 0.00 0.00 0.00 0.00 0.00 0.00 0.00 0.01 0.00 0.00 0.00 0.00 0.00 0.00 0.00 0.00 0.00 0.00 0.01 0.01 0.00 0.00 0.01 0.01 0.01 0.01 0.00 0.01 0.01 0.01 0.01 0.00 0.00 0.01 0.01
0.00 0.00 0.00 0.00 0.01 0.00 0.00 0.00 0.00 0.00 0.00 0.00 0.00 0.00 0.00 0.00 0.00 0.01 0.00 0.01 0.00 0.00 0.02 0.00 0.00 0.00 0.01 0.01 0.01 0.01 0.01 0.01 0.01 0.00 0.01 0.01 0.01 0.01 0.01 0.01 0.01 0.01 0.01 0.01
0.00 0.00 0.00 0.00 0.01 0.00 0.00 0.00 0.00 0.01 0.01 0.02 0.02 0.01 0.01 0.01 0.00 0.00 0.01 0.01 0.01 0.00 0.01 0.02 0.01 0.01 0.01 0.01 0.02 0.01 0.01 0.01 0.01 0.01 0.01 0.01 0.01 0.01 0.01 0.01 0.01 0.01 0.01 0.01
0.01 0.00 0.00 0.00 0.00 0.00 0.00 0.00 0.00 0.01 0.02 0.02 0.03 0.05 0.03 0.02 0.02 0.01 0.02 0.02 0.02 0.02 0.02 0.02 0.03 0.02 0.02 0.02 0.01 0.02 0.02 0.02 0.02 0.02 0.02 0.01 0.02 0.02 0.02 0.01 0.01 0.01 0.01 0.01

GFSNGP_prec_precacc24_102.txt.gz
Total_Precipitation_Accumulation
0.02 0.01 0.06 0.12 0.10 0.09 0.11 0.12 0.21 0.11 0.18 0.30 0.34 0.30 0.21 0.16 0.07 0.05 0.05 0.06 0.07 0.08 0.08 0.09 0.10 0.10 0.19 0.31 0.75 0.85 1.09 1.41 1.32 1.02 0.84 0.81 0.64 0.42 0.19 0.07 0.03 0.03 0.02 0.04
0.06 0.02 0.02 0.02 0.03 0.09 0.09 0.10 0.11 0.06 0.24 0.44 0.39 0.33 0.16 0.12 0.09 0.11 0.09 0.10 0.10 0.09 0.10 0.11 0.10 0.12 0.17 0.24 0.28 0.49 0.60 0.96 1.32 1.73 0.99 0.94 1.09 1.06 0.66 0.22 0.11 0.06 0.05 0.04
0.15 0.06 0.06 0.03 0.05 0.05 0.04 0.10 0.12 0.21 0.28 0.21 0.24 0.17 0.12 0.09 0.07 0.15 0.20 0.15 0.13 0.15 0.14 0.15 0.16 0.15 0.19 0.28 0.28 0.35 0.45 0.86 1.00 1.16 1.51 1.09 1.22 1.34 1.46 1.01 0.52 0.23 0.10 0.08
0.25 0.12 0.16 0.06 0.16 0.25 0.24 0.35 0.43 0.44 0.26 0.10 0.07 0.11 0.16 0.21 0.18 0.21 0.26 0.35 0.22 0.20 0.19 0.18 0.20 0.21 0.22 0.26 0.31 0.36 0.44 0.58 0.73 0.62 1.04 1.32 0.97 0.98 1.05 1.03 0.87 0.52 0.19 0.09
0.36 0.33 0.15 0.12 0.27 0.53 0.57 0.56 0.40 0.32 0.21 0.16 0.15 0.11 0.15 0.29 0.25 0.28 0.33 0.39 0.71 0.42 0.24 0.29 0.24 0.24 0.25 0.27 0.32 0.36 0.53 0.68 0.81 0.89 0.91 1.03 1.26 1.08 1.06 0.91 0.77 0.53 0.27 0.12
0.29 0.51 0.43 0.68 0.26 0.21 0.58 0.58 0.30 0.28 0.24 0.21 0.26 0.25 0.18 0.18 0.20 0.29 0.37 0.35 0.42 0.74 0.67 0.50 0.54 0.39 0.29 0.30 0.30 0.39 0.47 0.56 0.67 0.85 1.00 1.17 1.35 1.43 1.33 1.19 0.94 0.73 0.45 0.24
0.17 0.36 0.51 0.45 0.25 0.33 0.58 0.52 0.23 0.32 0.34 0.33 0.33 0.29 0.26 0.22 0.27 0.30 0.29 0.32 0.36 0.30 0.44 0.67 0.71 0.80 0.67 0.51 0.48 0.52 0.56 0.58 0.61 0.69 0.85 0.96 1.04 1.21 1.40 1.47 1.32 0.96 0.74 0.52
0.33 0.60 0.57 0.09 0.22 0.44 0.55 0.36 0.26 0.35 0.34 0.32 0.27 0.22 0.19 0.21 0.29 0.33 0.30 0.24 0.21 0.25 0.23 0.24 0.23 0.32 0.64 0.83 0.83 0.70 0.62 0.55 0.62 0.62 0.72 0.88 0.96 0.97 0.93 1.00 1.21 1.27 1.01 0.84
0.65 0.63 0.41 0.20 0.29 0.37 0.33 0.28 0.31 0.29 0.28 0.20 0.18 0.20 0.19 0.23 0.27 0.32 0.31 0.14 0.07 0.09 0.06 0.05 0.07 0.08 0.14 0.28 0.45 0.53 0.58 0.64 0.59 0.57 0.58 0.54 0.56 0.69 0.80 0.83 0.75 0.71 0.73 0.74
0.26 0.22 0.19 0.28 0.22 0.19 0.20 0.21 0.22 0.17 0.13 0.10 0.12 0.13 0.16 0.20 0.23 0.26 0.29 0.16 0.06 0.02 0.01 0.03 0.05 0.06 0.05 0.02 0.03 0.07 0.11 0.15 0.20 0.25 0.28 0.29 0.30 0.34 0.37 0.46 0.53 0.62 0.61 0.57
0.13 0.15 0.16 0.19 0.26 0.21 0.20 0.15 0.14 0.15 0.10 0.11 0.13 0.16 0.13 0.15 0.19 0.25 0.30 0.27 0.12 0.08 0.07 0.09 0.05 0.04 0.06 0.05 0.01 0.01 0.03 0.05 0.07 0.10 0.12 0.15 0.16 0.18 0.18 0.24 0.21 0.24 0.31 0.34
0.11 0.08 0.13 0.25 0.25 0.18 0.17 0.17 0.16 0.08 0.07 0.07 0.08 0.13 0.15 0.16 0.15 0.16 0.21 0.23 0.17 0.15 0.13 0.08 0.04 0.04 0.04 0.03 0.02 0.01 0.01 0.01 0.01 0.01 0.02 0.03 0.03 0.06 0.07 0.09 0.06 0.05 0.07 0.08
0.08 0.10 0.10 0.15 0.16 0.10 0.07 0.06 0.05 0.03 0.03 0.04 0.04 0.04 0.08 0.14 0.13 0.11 0.12 0.15 0.18 0.18 0.16 0.12 0.07 0.04 0.04 0.02 0.00 0.00 0.01 0.01 0.01 0.01 0.01 0.02 0.01 0.01 0.02 0.03 0.02 0.04 0.03 0.02
0.10 0.12 0.14 0.14 0.10 0.06 0.01 0.01 0.00 0.00 0.01 0.00 0.00 0.00 0.01 0.02 0.03 0.03 0.05 0.07 0.08 0.09 0.10 0.11 0.11 0.10 0.07 0.03 0.01 0.00 0.00 0.00 0.00 0.01 0.01 0.01 0.01 0.01 0.02 0.02 0.02 0.01 0.02 0.01
0.14 0.11 0.07 0.03 0.01 0.00 0.00 0.00 0.00 0.00 0.00 0.00 0.00 0.00 0.00 0.01 0.02 0.03 0.03 0.01 0.00 0.00 0.00 0.01 0.01 0.02 0.02 0.02 0.01 0.00 0.01 0.01 0.01 0.00 0.00 0.00 0.00 0.00 0.00 0.00 0.00 0.01 0.01 0.00
0.16 0.05 0.01 0.01 0.01 0.00 0.00 0.00 0.00 0.00 0.00 0.00 0.00 0.00 0.00 0.00 0.01 0.01 0.01 0.00 0.00 0.00 0.00 0.00 0.00 0.00 0.00 0.01 0.01 0.00 0.00 0.00 0.00 0.00 0.00 0.00 0.00 0.00 0.00 0.00 0.00 0.00 0.00 0.00
0.12 0.07 0.03 0.02 0.00 0.00 0.00 0.00 0.00 0.00 0.00 0.00 0.02 0.01 0.00 0.00 0.00 0.01 0.00 0.00 0.00 0.00 0.00 0.00 0.00 0.00 0.00 0.00 0.00 0.00 0.00 0.00 0.00 0.00 0.00 0.00 0.00 0.00 0.00 0.00 0.00 0.00 0.00 0.00
0.07 0.04 0.03 0.01 0.00 0.00 0.00 0.00 0.00 0.00 0.01 0.01 0.00 0.00 0.00 0.00 0.01 0.00 0.00 0.00 0.00 0.00 0.00 0.00 0.00 0.00 0.00 0.00 0.00 0.00 0.00 0.00 0.00 0.00 0.00 0.00 0.00 0.00 0.00 0.00 0.00 0.00 0.00 0.00
0.04 0.03 0.01 0.00 0.00 0.00 0.00 0.01 0.01 0.01 0.01 0.00 0.00 0.00 0.00 0.00 0.00 0.00 0.00 0.00 0.00 0.00 0.00 0.00 0.00 0.00 0.00 0.00 0.00 0.00 0.00 0.00 0.00 0.00 0.00 0.00 0.00 0.00 0.00 0.01 0.00 0.00 0.00 0.00
0.03 0.01 0.00 0.00 0.00 0.00 0.01 0.01 0.00 0.01 0.00 0.00 0.00 0.00 0.00 0.00 0.00 0.00 0.00 0.00 0.00 0.00 0.00 0.00 0.00 0.00 0.00 0.00 0.00 0.00 0.00 0.00 0.00 0.00 0.00 0.01 0.01 0.01 0.01 0.00 0.00 0.01 0.01 0.01
0.02 0.01 0.00 0.00 0.00 0.00 0.00 0.00 0.00 0.00 0.00 0.00 0.00 0.00 0.00 0.00 0.00 0.00 0.01 0.01 0.00 0.00 0.00 0.00 0.00 0.00 0.00 0.00 0.00 0.00 0.00 0.00 0.00 0.01 0.01 0.01 0.02 0.02 0.02 0.02 0.02 0.02 0.01 0.01
0.01 0.00 0.01 0.01 0.01 0.01 0.00 0.00 0.00 0.00 0.00 0.00 0.00 0.00 0.00 0.00 0.00 0.00 0.00 0.00 0.00 0.00 0.00 0.00 0.00 0.00 0.00 0.00 0.00 0.00 0.00 0.00 0.01 0.01 0.01 0.02 0.02 0.03 0.03 0.03 0.03 0.03 0.03 0.02
0.00 0.00 0.01 0.01 0.00 0.00 0.00 0.00 0.00 0.00 0.00 0.00 0.00 0.00 0.00 0.00 0.00 0.00 0.01 0.00 0.00 0.00 0.00 0.00 0.00 0.00 0.00 0.00 0.01 0.01 0.00 0.00 0.00 0.00 0.01 0.01 0.01 0.01 0.02 0.02 0.02 0.02 0.03 0.02
0.01 0.01 0.00 0.00 0.00 0.00 0.00 0.00 0.00 0.00 0.00 0.00 0.00 0.00 0.00 0.00 0.01 0.00 0.00 0.00 0.00 0.00 0.00 0.00 0.00 0.00 0.00 0.01 0.01 0.01 0.01 0.01 0.01 0.01 0.01 0.00 0.02 0.01 0.01 0.01 0.01 0.01 0.01 0.01
0.00 0.00 0.00 0.00 0.01 0.00 0.00 0.00 0.00 0.00 0.00 0.00 0.00 0.00 0.00 0.00 0.00 0.01 0.00 0.01 0.00 0.00 0.02 0.01 0.00 0.00 0.01 0.01 0.02 0.01 0.01 0.01 0.01 0.01 0.01 0.01 0.01 0.01 0.01 0.01 0.01 0.01 0.01 0.01
0.00 0.00 0.00 0.00 0.01 0.00 0.00 0.00 0.00 0.00 0.01 0.02 0.02 0.01 0.01 0.01 0.00 0.00 0.01 0.02 0.01 0.01 0.01 0.03 0.01 0.01 0.01 0.02 0.02 0.02 0.01 0.02 0.02 0.02 0.02 0.02 0.02 0.01 0.01 0.01 0.01 0.01 0.01 0.01
0.01 0.00 0.00 0.00 0.00 0.00 0.00 0.00 0.00 0.01 0.02 0.02 0.02 0.05 0.03 0.02 0.02 0.01 0.02 0.03 0.03 0.03 0.02 0.02 0.02 0.02 0.01 0.01 0.01 0.02 0.02 0.03 0.03 0.03 0.03 0.03 0.03 0.03 0.03 0.02 0.02 0.02 0.02 0.02

GFSNGP_prec_precacc24_105.txt.gz
Total_Precipitation_Accumulation
0.00 0.00 0.06 0.08 0.06 0.07 0.08 0.12 0.21 0.11 0.18 0.30 0.34 0.29 0.20 0.15 0.05 0.02 0.01 0.01 0.02 0.04 0.05 0.06 0.07 0.07 0.14 0.26 0.71 0.82 1.15 1.65 1.55 1.18 1.10 1.19 1.26 0.99 0.44 0.40 0.20 0.10 0.06 0.04
0.01 0.00 0.00 0.01 0.02 0.09 0.09 0.10 0.11 0.06 0.24 0.44 0.37 0.31 0.16 0.12 0.08 0.05 0.04 0.02 0.03 0.05 0.05 0.07 0.07 0.08 0.11 0.17 0.24 0.47 0.60 0.98 1.40 1.79 1.07 1.07 1.31 1.41 0.90 0.49 0.38 0.13 0.09 0.07
0.04 0.04 0.05 0.02 0.04 0.05 0.04 0.10 0.12 0.20 0.27 0.20 0.23 0.18 0.11 0.09 0.07 0.08 0.07 0.08 0.05 0.07 0.08 0.10 0.12 0.13 0.14 0.20 0.22 0.33 0.46 0.86 1.02 1.29 1.67 1.20 1.28 1.43 1.63 1.16 0.78 0.57 0.23 0.11
0.05 0.10 0.15 0.05 0.16 0.25 0.24 0.34 0.43 0.44 0.25 0.10 0.07 0.12 0.12 0.11 0.14 0.14 0.09 0.12 0.16 0.13 0.16 0.15 0.16 0.18 0.18 0.20 0.25 0.32 0.45 0.60 0.74 0.69 1.17 1.45 1.06 1.01 1.09 1.21 1.21 1.01 0.49 0.22
0.25 0.31 0.14 0.12 0.27 0.53 0.57 0.53 0.39 0.31 0.21 0.16 0.15 0.11 0.12 0.13 0.17 0.20 0.21 0.22 0.26 0.29 0.22 0.28 0.25 0.24 0.23 0.25 0.30 0.34 0.53 0.71 0.85 0.91 0.93 1.03 1.27 1.08 1.08 0.96 0.94 1.00 0.88 0.54
0.19 0.50 0.43 0.64 0.25 0.21 0.59 0.59 0.30 0.28 0.24 0.21 0.27 0.30 0.19 0.17 0.20 0.25 0.27 0.21 0.22 0.37 0.47 0.39 0.44 0.36 0.28 0.30 0.30 0.40 0.49 0.60 0.71 0.87 1.02 1.18 1.37 1.49 1.44 1.35 1.10 0.94 0.87 0.72
0.12 0.36 0.52 0.45 0.25 0.33 0.61 0.54 0.23 0.33 0.34 0.34 0.37 0.32 0.27 0.21 0.23 0.25 0.21 0.20 0.20 0.21 0.38 0.59 0.59 0.64 0.56 0.48 0.47 0.53 0.56 0.58 0.61 0.69 0.85 0.97 1.06 1.27 1.54 1.71 1.65 1.32 1.16 0.99
0.30 0.58 0.58 0.09 0.22 0.45 0.57 0.37 0.27 0.35 0.35 0.35 0.29 0.22 0.19 0.19 0.22 0.21 0.19 0.16 0.16 0.17 0.21 0.23 0.23 0.31 0.62 0.79 0.78 0.65 0.59 0.54 0.62 0.62 0.71 0.88 0.96 0.98 0.97 1.12 1.40 1.59 1.42 1.31
0.59 0.59 0.41 0.20 0.30 0.37 0.34 0.29 0.32 0.31 0.31 0.23 0.22 0.22 0.19 0.20 0.18 0.20 0.19 0.11 0.07 0.09 0.06 0.05 0.07 0.08 0.14 0.28 0.45 0.52 0.57 0.63 0.58 0.57 0.57 0.53 0.56 0.68 0.80 0.85 0.80 0.82 0.90 1.00
0.26 0.22 0.19 0.27 0.22 0.19 0.21 0.22 0.24 0.19 0.16 0.12 0.15 0.16 0.16 0.16 0.15 0.15 0.17 0.14 0.06 0.02 0.01 0.03 0.05 0.06 0.05 0.02 0.03 0.07 0.11 0.15 0.20 0.25 0.28 0.29 0.31 0.34 0.37 0.46 0.54 0.62 0.64 0.63
0.12 0.14 0.13 0.16 0.23 0.20 0.20 0.16 0.15 0.14 0.09 0.08 0.08 0.12 0.10 0.10 0.12 0.14 0.17 0.19 0.12 0.08 0.07 0.09 0.05 0.04 0.06 0.05 0.01 0.01 0.03 0.05 0.07 0.10 0.12 0.15 0.16 0.18 0.18 0.24 0.21 0.24 0.31 0.34
0.08 0.06 0.07 0.16 0.21 0.16 0.17 0.17 0.13 0.06 0.05 0.04 0.03 0.07 0.08 0.11 0.12 0.11 0.14 0.16 0.15 0.15 0.13 0.08 0.04 0.04 0.04 0.03 0.02 0.01 0.01 0.01 0.01 0.01 0.02 0.03 0.03 0.06 0.07 0.09 0.06 0.05 0.07 0.08
0.05 0.06 0.04 0.11 0.13 0.09 0.07 0.06 0.03 0.02 0.02 0.03 0.03 0.03 0.05 0.11 0.11 0.09 0.09 0.10 0.15 0.17 0.16 0.12 0.07 0.04 0.03 0.02 0.00 0.00 0.01 0.01 0.01 0.01 0.01 0.02 0.01 0.00 0.02 0.03 0.02 0.03 0.02 0.02
0.04 0.08 0.11 0.12 0.09 0.05 0.01 0.01 0.00 0.00 0.00 0.00 0.00 0.00 0.01 0.02 0.03 0.02 0.04 0.06 0.07 0.09 0.10 0.11 0.10 0.09 0.07 0.03 0.01 0.00 0.00 0.00 0.00 0.01 0.01 0.01 0.01 0.01 0.02 0.02 0.01 0.01 0.02 0.01
0.09 0.08 0.05 0.03 0.01 0.00 0.00 0.00 0.00 0.00 0.00 0.00 0.00 0.00 0.00 0.01 0.02 0.03 0.03 0.01 0.00 0.00 0.00 0.01 0.01 0.02 0.02 0.02 0.01 0.00 0.00 0.01 0.01 0.00 0.00 0.00 0.00 0.00 0.00 0.00 0.00 0.01 0.01 0.00
0.12 0.04 0.01 0.01 0.01 0.00 0.00 0.00 0.00 0.00 0.00 0.00 0.00 0.00 0.00 0.00 0.01 0.01 0.01 0.00 0.00 0.00 0.00 0.00 0.00 0.00 0.00 0.01 0.01 0.00 0.00 0.00 0.00 0.00 0.00 0.00 0.00 0.00 0.00 0.00 0.00 0.00 0.00 0.00
0.11 0.07 0.03 0.02 0.00 0.00 0.00 0.00 0.00 0.00 0.00 0.00 0.01 0.01 0.00 0.00 0.00 0.00 0.00 0.00 0.00 0.00 0.00 0.00 0.00 0.00 0.00 0.00 0.00 0.00 0.00 0.00 0.00 0.00 0.00 0.00 0.00 0.00 0.00 0.00 0.00 0.00 0.00 0.00
0.07 0.04 0.03 0.01 0.00 0.00 0.00 0.00 0.00 0.00 0.00 0.00 0.00 0.00 0.00 0.00 0.00 0.00 0.00 0.00 0.00 0.00 0.00 0.00 0.00 0.00 0.00 0.00 0.00 0.00 0.00 0.00 0.00 0.00 0.00 0.00 0.00 0.00 0.00 0.00 0.00 0.00 0.00 0.00
0.04 0.03 0.01 0.00 0.00 0.00 0.00 0.00 0.00 0.01 0.00 0.00 0.00 0.00 0.00 0.00 0.00 0.00 0.00 0.00 0.00 0.00 0.00 0.00 0.00 0.00 0.00 0.00 0.00 0.00 0.00 0.00 0.00 0.00 0.00 0.00 0.00 0.00 0.01 0.01 0.01 0.01 0.01 0.01
0.03 0.01 0.00 0.00 0.00 0.00 0.00 0.01 0.00 0.00 0.00 0.00 0.00 0.00 0.00 0.00 0.00 0.00 0.00 0.00 0.00 0.00 0.00 0.00 0.00 0.00 0.00 0.00 0.00 0.00 0.00 0.00 0.00 0.00 0.00 0.01 0.01 0.02 0.01 0.01 0.01 0.01 0.02 0.01
0.03 0.01 0.00 0.00 0.00 0.00 0.00 0.00 0.00 0.00 0.00 0.00 0.00 0.00 0.00 0.00 0.00 0.00 0.01 0.01 0.00 0.00 0.00 0.00 0.00 0.00 0.00 0.00 0.00 0.00 0.00 0.00 0.00 0.01 0.02 0.02 0.02 0.02 0.03 0.03 0.03 0.03 0.02 0.02
0.02 0.01 0.01 0.01 0.00 0.01 0.00 0.00 0.00 0.00 0.00 0.00 0.00 0.00 0.00 0.00 0.00 0.00 0.00 0.00 0.00 0.00 0.00 0.00 0.00 0.00 0.00 0.00 0.00 0.00 0.00 0.01 0.01 0.01 0.02 0.02 0.03 0.03 0.03 0.03 0.03 0.03 0.03 0.03
0.01 0.00 0.00 0.00 0.00 0.00 0.00 0.00 0.00 0.00 0.00 0.00 0.00 0.00 0.00 0.00 0.00 0.00 0.01 0.00 0.00 0.00 0.00 0.00 0.00 0.00 0.00 0.00 0.01 0.01 0.01 0.01 0.01 0.01 0.01 0.01 0.01 0.02 0.02 0.02 0.02 0.02 0.03 0.03
0.00 0.00 0.00 0.00 0.00 0.00 0.00 0.00 0.00 0.00 0.00 0.00 0.00 0.00 0.00 0.00 0.01 0.00 0.00 0.00 0.00 0.00 0.00 0.00 0.00 0.00 0.00 0.02 0.02 0.02 0.01 0.02 0.02 0.02 0.02 0.01 0.02 0.02 0.02 0.02 0.01 0.01 0.02 0.02
0.00 0.00 0.00 0.00 0.01 0.00 0.00 0.00 0.00 0.00 0.00 0.00 0.00 0.00 0.00 0.00 0.00 0.01 0.00 0.01 0.01 0.00 0.03 0.02 0.00 0.00 0.01 0.02 0.02 0.02 0.02 0.02 0.02 0.02 0.02 0.02 0.02 0.03 0.02 0.02 0.02 0.02 0.01 0.02
0.00 0.00 0.00 0.00 0.01 0.00 0.00 0.00 0.00 0.00 0.01 0.01 0.02 0.01 0.01 0.01 0.00 0.00 0.01 0.02 0.02 0.01 0.02 0.04 0.02 0.01 0.01 0.02 0.02 0.02 0.01 0.02 0.02 0.03 0.03 0.03 0.03 0.03 0.04 0.03 0.03 0.03 0.03 0.03
0.00 0.00 0.00 0.00 0.00 0.00 0.00 0.00 0.00 0.00 0.01 0.01 0.02 0.04 0.03 0.02 0.01 0.01 0.02 0.03 0.03 0.03 0.03 0.02 0.02 0.02 0.01 0.01 0.01 0.02 0.02 0.03 0.03 0.03 0.03 0.04 0.04 0.04 0.04 0.03 0.03 0.03 0.03 0.04